Home   Weather   Yakutsk   Past weeks

Flag for Russia Past Weather in Yakutsk, Russia — Yesterday and Last 2 Weeks

Now
-36 °F

Clear.


Feels Like: -50 °F
Forecast: -38 / -33 °F
Wind: 3 mph from West

Location: Jakutsk

Current Time: Dec 5, 2016 at 11:54:08 pm

Latest Report: Dec 5, 2016 at 11:30 pm


Visibility: 10 mi

Pressure: 30.15 "Hg

Humidity: 73%

Dew Point: -42 °F

Location of YakutskLocation

Past Weather in Yakutsk — Graph

°F

Yakutsk Temperature Yesterday

Maximum temperature yesterday: -26 °F (at 12:00 am)
Minimum temperature yesterday: -33 °F (at 7:30 am)
Average temperature yesterday: -30 °F

High & Low Weather Summary for the Past Weeks

 TemperatureHumidityPressure
High-17 °F (Nov 23, 12:00 pm)76% (Nov 23, 12:00 pm)30.30 "Hg (Nov 23, 12:00 pm)
Low-42 °F (Nov 25, 8:00 am)58% (Nov 25, 5:00 am)29.65 "Hg (Dec 3, 4:00 am)
Average-31 °F69%30.06 "Hg
* Reported Nov 20 10:00 pm — Dec 5 10:30 pm, Yakutsk, Weather by CustomWeather, © 2016

Note: Actual official high and low records may vary slightly from our data, if they occured in-between our weather recording intervals... More about our weather records

Advertising

Yakutsk Weather History for the Previous 24 Hours

Scroll right to see more
 ConditionsComfort  
Time TempWeatherWind HumidityBarometerVisibility
10:30 pm
Mon, Dec 5
-38 °FIce fog.3 mph65%30.15 "Hg3 mi
10:00 pm-38 °FIce fog.3 mph65%30.15 "Hg3 mi
9:00 pm-38 °FExtremely cold.1 mph65%30.18 "Hg1 mi
8:30 pm-38 °FExtremely cold.3 mph65%30.18 "Hg1 mi
8:00 pm-38 °FExtremely cold.1 mph65%30.18 "Hg2 mi
7:30 pm-36 °FLight snow. Clear.1 mph66%30.18 "HgN/A
7:00 pm-36 °FLight snow. Clear.No wind66%30.21 "HgN/A
6:30 pm-36 °FLight snow. Clear.1 mph66%30.21 "HgN/A
6:00 pm-36 °FLight snow. Clear.1 mph66%30.21 "HgN/A
5:30 pm-36 °FLight snow. Clear.1 mph66%30.21 "HgN/A
5:00 pm-36 °FLight snow. Clear.1 mph66%30.21 "HgN/A
4:30 pm-35 °FLight snow. Clear.3 mph66%30.21 "HgN/A
4:00 pm-35 °FClear.3 mph66%30.21 "Hg10 mi
3:30 pm-35 °FClear.3 mph66%30.21 "Hg10 mi
3:00 pm-36 °FClear.3 mph66%30.21 "Hg10 mi
2:30 pm-35 °FClear.3 mph66%30.21 "Hg10 mi
2:00 pm-35 °FClear.3 mph66%30.21 "Hg10 mi
1:30 pm-35 °FSunny.6 mph66%30.21 "Hg10 mi
1:00 pm-35 °FSunny.6 mph66%30.21 "Hg10 mi
12:30 pm-35 °FSunny.6 mph66%30.21 "Hg10 mi
12:00 pm-35 °FSunny.3 mph66%30.21 "Hg10 mi
11:30 am-36 °FSunny.6 mph66%30.21 "Hg10 mi
11:00 am-36 °FSunny.6 mph66%30.21 "Hg10 mi
10:30 am-36 °FSunny.3 mph66%30.21 "Hg10 mi
10:00 am-36 °FSunny.6 mph66%30.21 "Hg10 mi
9:30 am-36 °FSunny.6 mph66%30.21 "Hg10 mi
9:00 am-36 °FSunny.3 mph66%30.21 "Hg10 mi
8:30 am-36 °FLight snow. Clear.3 mph66%30.21 "HgN/A
8:00 am-36 °FLight snow. Clear.3 mph66%30.21 "HgN/A
7:30 am-36 °FLight snow. Clear.3 mph66%30.18 "HgN/A
7:00 am-36 °FLight snow. Clear.3 mph66%30.18 "HgN/A
6:30 am-36 °FLight snow. Clear.3 mph66%30.18 "HgN/A
6:00 am-36 °FLight snow. Clear.3 mph66%30.18 "HgN/A
5:30 am-36 °FLight snow. Clear.1 mph73%30.18 "HgN/A
5:00 am-36 °FLight snow. Clear.1 mph66%30.18 "HgN/A
4:30 am-36 °FLight snow. Clear.1 mph66%30.18 "HgN/A
4:00 am-36 °FLight snow. Clear.1 mph66%30.18 "HgN/A
3:30 am-36 °FLight snow. Clear.3 mph73%30.15 "HgN/A
3:00 am-36 °FLight snow. Clear.3 mph66%30.15 "HgN/A
2:30 am-35 °FLight snow. Clear.6 mph66%30.15 "HgN/A
2:00 am-35 °FLight snow. Clear.3 mph66%30.15 "HgN/A
1:30 am-35 °FLight snow. Clear.1 mph66%30.15 "HgN/A
1:00 am-35 °FLight snow. Clear.1 mph73%30.12 "HgN/A
12:30 am-33 °FLight snow. Clear.3 mph66%30.12 "HgN/A
12:00 am-33 °FLight snow. Clear.3 mph66%30.12 "HgN/A
11:30 pm
Sun, Dec 4
-33 °FLight snow. Clear.3 mph66%30.12 "HgN/A
11:00 pm-33 °FLight snow. Clear.3 mph74%30.12 "HgN/A
Weather by CustomWeather, © 2016

See weather overviewHow to use our weather pages